Weather History for St. Joseph, MO

Change the Weather History Date:

Monday, August 19, 2013

  Actual Average Record
Temperature  
Mean Temperature 71 °F 75 °F  
Max Temperature 84 °F 86 °F 107 °F (1936)
Min Temperature 57 °F 64 °F 48 °F (1967)
Degree Days  
Heating Degree Days 0 0  
Month to date heating degree days 0 0  
Since 1 June heating degree days 17 9  
Since 1 July heating degree days 2 1  
Cooling Degree Days 6 10  
Month to date cooling degree days 141 217  
Year to date cooling degree days 888 971  
Since 1 June cooling degree days 762 858  
Growing Degree Days 20 (Base 50)    
Moisture  
Dew Point 60 °F    
Average Humidity 76    
Maximum Humidity 100    
Minimum Humidity 51    
Precipitation  
Precipitation 0.00 in 0.14 in 3.71 in (2000)
Month to date precipitation 1.26 2.30  
Year to date precipitation 19.67 24.62  
Sea Level Pressure  
Sea Level Pressure 30.07 in    
Wind  
Wind Speed 5 mph (South)    
Max Wind Speed 16 mph    
Max Gust Speed 20 mph    
Visibility 4 miles    
Events Fog    
T = Trace of Precipitation, MM = Missing Value Source: NWS Daily Summary

Daily Weather History Graph

Daily Weather History Graph

Search for Another Location

Airport:

Trip Planner

Search our weather history database for the weather conditions in past years. The results will help you decide how hot, cold, wet, or windy it might be!

Date:

Astronomy

Aug. 19, 2013 Rise Set
Actual Time 6:35 AM CDT 8:09 PM CDT
Civil Twilight 6:07 AM CDT 8:38 PM CDT
Nautical Twilight 5:32 AM CDT 9:12 PM CDT
Astronomical Twilight 4:56 AM CDT 9:49 PM CDT
Moon 7:01 PM CDT (8/19) 4:55 AM CDT (8/19)
Length of Visible Light 14h 31m
Length of Day
13h 34m
Waxing Gibbous, 97% of the Moon is Illuminated
Aug 19
Waxing Gibbous
Aug 20
Full
Aug 28
Last Quarter
Sep 5
New
Sep 12
First Quarter

Hourly Weather History & Observations

Time (CDT) Temp. Heat Index Dew Point Humidity Pressure Visibility Wind Dir Wind Speed Gust Speed Precip Events Conditions
12:53 AM 61.0 °F - 57.9 °F 90% 30.10 in 7.0 mi Calm Calm - N/A   Clear
1:53 AM 60.1 °F - 57.9 °F 93% 30.08 in 1.5 mi Calm Calm - N/A   Partly Cloudy
2:04 AM 59.0 °F - 57.2 °F 94% 30.09 in 4.0 mi Calm Calm - N/A   Mostly Cloudy
2:23 AM 60.8 °F - 57.2 °F 88% 30.09 in 3.0 mi Calm Calm - N/A   Scattered Clouds
2:31 AM 60.8 °F - 57.2 °F 88% 30.09 in 1.5 mi Calm Calm - N/A   Partly Cloudy
2:37 AM 60.8 °F - 57.2 °F 88% 30.09 in 0.5 mi Calm Calm - N/A Fog Fog
2:51 AM 59.0 °F - 57.2 °F 94% 30.08 in 0.5 mi Calm Calm - N/A Fog Fog
2:53 AM 59.0 °F - 57.9 °F 96% 30.06 in 0.5 mi Calm Calm - N/A Fog Fog
2:55 AM 59.0 °F - 57.2 °F 94% 30.08 in 1.5 mi Calm Calm - N/A   Partly Cloudy
2:57 AM 59.0 °F - 57.2 °F 94% 30.08 in 3.0 mi Calm Calm - N/A   Partly Cloudy
3:00 AM 59.0 °F - 57.2 °F 94% 30.08 in 1.8 mi Calm Calm - N/A   Partly Cloudy
3:08 AM 59.0 °F - 57.2 °F 94% 30.08 in 1.2 mi Calm Calm - N/A   Partly Cloudy
3:11 AM 60.8 °F - 57.2 °F 88% 30.08 in 3.0 mi Calm Calm - N/A   Partly Cloudy
3:16 AM 60.8 °F - 57.2 °F 88% 30.08 in 1.5 mi Calm Calm - N/A   Partly Cloudy
3:18 AM 60.8 °F - 57.2 °F 88% 30.08 in 1.0 mi Calm Calm - N/A   Mist
3:25 AM 59.0 °F - 57.2 °F 94% 30.08 in 0.8 mi Calm Calm - N/A   Mist
3:29 AM 59.0 °F - 57.2 °F 94% 30.08 in 3.0 mi Calm Calm - N/A   Mostly Cloudy
3:45 AM 60.8 °F - 57.2 °F 88% 30.09 in 2.5 mi Calm Calm - N/A   Mostly Cloudy
3:50 AM 60.8 °F - 57.2 °F 88% 30.09 in 0.8 mi Calm Calm - N/A   Mist
3:53 AM 59.0 °F - 59.0 °F 100% 30.07 in 0.8 mi Calm Calm - N/A   Mist
4:01 AM 59.0 °F - 57.2 °F 94% 30.08 in 2.0 mi Calm Calm - N/A   Mostly Cloudy
4:08 AM 59.0 °F - 57.2 °F 94% 30.08 in 4.0 mi Calm Calm - N/A   Mostly Cloudy
4:23 AM 60.8 °F - 57.2 °F 88% 30.08 in 4.0 mi Calm Calm - N/A   Scattered Clouds
4:53 AM 59.0 °F - 57.0 °F 93% 30.07 in 5.0 mi Calm Calm - N/A   Clear
5:53 AM 59.0 °F - 55.9 °F 90% 30.08 in 7.0 mi Calm Calm - N/A   Clear
6:17 AM 57.2 °F - 55.4 °F 94% 30.09 in 1.2 mi Calm Calm - N/A   Partly Cloudy
6:22 AM 57.2 °F - 55.4 °F 94% 30.09 in 3.0 mi Calm Calm - N/A   Partly Cloudy
6:25 AM 57.2 °F - 55.4 °F 94% 30.10 in 1.5 mi Calm Calm - N/A   Partly Cloudy
6:28 AM 57.2 °F - 57.2 °F 100% 30.10 in 0.8 mi Calm Calm - N/A   Mist
6:36 AM 57.2 °F - 55.4 °F 94% 30.10 in 2.0 mi Calm Calm - N/A   Partly Cloudy
6:38 AM 57.2 °F - 55.4 °F 94% 30.10 in 0.8 mi Calm Calm - N/A   Mist
6:42 AM 57.2 °F - 55.4 °F 94% 30.10 in 0.2 mi Calm Calm - N/A Fog Fog
6:53 AM 60.1 °F - 57.0 °F 90% 30.08 in 0.2 mi ESE 4.6 mph - N/A Fog Fog
6:57 AM 62.6 °F - 59.0 °F 88% 30.10 in 3.0 mi Calm Calm - N/A   Mostly Cloudy
7:53 AM 64.9 °F - 62.1 °F 90% 30.09 in 3.0 mi Calm Calm - N/A   Partly Cloudy
8:53 AM 69.1 °F - 64.0 °F 84% 30.09 in 6.0 mi SSW 3.5 mph - N/A   Haze
9:53 AM 73.0 °F - 66.9 °F 81% 30.09 in 8.0 mi South 5.8 mph - N/A   Clear
10:53 AM 77.0 °F - 66.0 °F 69% 30.09 in 10.0 mi SSW 9.2 mph - N/A   Scattered Clouds
11:53 AM 80.1 °F 81.9 °F 64.9 °F 60% 30.09 in 10.0 mi South 10.4 mph - N/A   Clear
12:53 PM 81.0 °F 82.7 °F 64.9 °F 58% 30.07 in 10.0 mi South 12.7 mph - N/A   Clear
1:53 PM 82.9 °F 84.6 °F 64.9 °F 54% 30.05 in 10.0 mi South 9.2 mph - N/A   Partly Cloudy
2:53 PM 82.9 °F 84.4 °F 64.0 °F 53% 30.03 in 10.0 mi South 10.4 mph - N/A   Clear
3:53 PM 84.0 °F 85.8 °F 64.9 °F 53% 30.01 in 10.0 mi South 12.7 mph - N/A   Clear
4:53 PM 84.0 °F 85.8 °F 64.9 °F 53% 29.99 in 10.0 mi SSW 8.1 mph - N/A   Clear
5:53 PM 82.9 °F 84.4 °F 64.0 °F 53% 29.99 in 10.0 mi South 10.4 mph - N/A   Clear
6:53 PM 81.0 °F 82.7 °F 64.9 °F 58% 29.98 in 10.0 mi South 6.9 mph - N/A   Clear
7:53 PM 77.0 °F - 66.0 °F 69% 29.98 in 10.0 mi South 6.9 mph - N/A   Clear
8:53 PM 73.0 °F - 64.9 °F 76% 29.99 in 10.0 mi SSE 5.8 mph - N/A   Clear
9:53 PM 72.0 °F - 64.9 °F 78% 30.00 in 10.0 mi South 4.6 mph - N/A   Clear
10:53 PM 72.0 °F - 66.0 °F 81% 30.00 in 10.0 mi South 3.5 mph - N/A   Clear
11:53 PM 70.0 °F - 64.0 °F 81% 30.00 in 10.0 mi South 5.8 mph - N/A   Clear